When you browse on this site, cookies collect data to enhance your experience and personalize the content and advertising you see.
Visit our Privacy Policy to learn more. By continuing to use the site, you agree to this use of cookies and data.
  • In Austria
  • List of Countries
  • For 7 days
  • Water Temperature
  • Weather Map
  • News
  • Weather Widgets
  • user-avatar
    Login

    Hourly Weather Ricaurte

    Today, 17 September, Tuesday

    Time Temperature Precipitation Wind Pressure Humidity
    00:00 +27°C° 0.9 mm 1 mps 737 mmHg 76%
    01:00 +27°C° 0.9 mm 1 mps 736 mmHg 78%
    02:00 +26°C° 1.4 mm 1 mps 736 mmHg 80%
    03:00 +24°C° 1.4 mm 0 mps 736 mmHg 82%
    04:00 +24°C° 1.4 mm 0 mps 736 mmHg 84%
    05:00 +24°C° 0.5 mm 0 mps 737 mmHg 83%
    06:00 +24°C° 0.5 mm 0 mps 737 mmHg 82%
    07:00 +25°C° 0.5 mm 0 mps 738 mmHg 80%
    08:00 +27°C° 0.3 mm 0 mps 738 mmHg 73%
    09:00 +31°C° 0.3 mm 1 mps 737 mmHg 66%
    10:00 +32°C° 0.3 mm 1 mps 737 mmHg 59%
    11:00 +34°C° 0.2 mm 1 mps 737 mmHg 54%
    12:00 +35°C° 0.2 mm 1 mps 736 mmHg 48%
    13:00 +38°C° 0.2 mm 2 mps 735 mmHg 42%
    14:00 +38°C° 0.1 mm 2 mps 734 mmHg 41%
    15:00 +37°C° 0.1 mm 1 mps 734 mmHg 39%
    16:00 +37°C° 0.1 mm 1 mps 733 mmHg 38%
    17:00 +37°C° 0.2 mm 2 mps 734 mmHg 43%
    18:00 +35°C° 0.2 mm 2 mps 735 mmHg 49%
    19:00 +32°C° 0.2 mm 2 mps 735 mmHg 54%
    20:00 +31°C° 0.8 mm 2 mps 736 mmHg 60%
    21:00 +30°C° 0.8 mm 1 mps 736 mmHg 67%
    22:00 +29°C° 0.8 mm 1 mps 737 mmHg 74%
    23:00 +28°C° 2 mm 1 mps 736 mmHg 78%

    Tomorrow, 18 September, Wednesday

    Time Temperature Precipitation Wind Pressure Humidity
    00:00 +27°C° 2 mm 1 mps 736 mmHg 83%
    01:00 +27°C° 2 mm 1 mps 736 mmHg 88%
    02:00 +26°C° 3 mm 2 mps 736 mmHg 90%
    03:00 +26°C° 3 mm 2 mps 736 mmHg 91%
    04:00 +26°C° 3 mm 2 mps 736 mmHg 93%
    05:00 +25°C° 1.2 mm 2 mps 736 mmHg 93%
    06:00 +25°C° 1.2 mm 1 mps 737 mmHg 93%
    07:00 +25°C° 1.2 mm 1 mps 737 mmHg 93%
    08:00 +26°C° 0.2 mm 1 mps 737 mmHg 90%
    09:00 +26°C° 0.2 mm 1 mps 737 mmHg 87%
    10:00 +27°C° 0.2 mm 1 mps 737 mmHg 84%
    11:00 +28°C° 0.1 mm 1 mps 736 mmHg 77%
    12:00 +30°C° 0.1 mm 1 mps 735 mmHg 69%
    13:00 +32°C° 0.1 mm 1 mps 734 mmHg 62%
    14:00 +32°C° 0 mm 1 mps 734 mmHg 59%
    15:00 +32°C° 0 mm 1 mps 733 mmHg 57%
    16:00 +33°C° 0 mm 1 mps 733 mmHg 54%
    17:00 +32°C° 0.2 mm 1 mps 733 mmHg 59%
    18:00 +30°C° 0.2 mm 1 mps 734 mmHg 64%
    19:00 +29°C° 0.2 mm 1 mps 734 mmHg 68%
    20:00 +29°C° 0.1 mm 1 mps 735 mmHg 70%
    21:00 +28°C° 0.1 mm 1 mps 735 mmHg 71%
    22:00 +28°C° 0.1 mm 1 mps 736 mmHg 72%
    23:00 +28°C° 0.1 mm 1 mps 736 mmHg 75%

    Day after tomorrow, 19 September, Thursday

    Time Temperature Precipitation Wind Pressure Humidity
    00:00 +27°C° 0.1 mm 1 mps 735 mmHg 77%
    01:00 +27°C° 0.1 mm 1 mps 735 mmHg 79%
    02:00 +27°C° 0.2 mm 1 mps 735 mmHg 80%
    03:00 +26°C° 0.2 mm 1 mps 735 mmHg 81%
    04:00 +24°C° 0.2 mm 0 mps 735 mmHg 82%
    05:00 +24°C° 0.2 mm 0 mps 735 mmHg 82%
    06:00 +24°C° 0.2 mm 0 mps 736 mmHg 82%
    07:00 +25°C° 0.2 mm 0 mps 736 mmHg 82%
    08:00 +26°C° 0 mm 0 mps 736 mmHg 77%
    09:00 +29°C° 0 mm 1 mps 736 mmHg 71%
    10:00 +31°C° 0 mm 1 mps 736 mmHg 66%
    11:00 +32°C° 0.1 mm 1 mps 735 mmHg 61%
    12:00 +33°C° 0.1 mm 1 mps 734 mmHg 57%
    13:00 +34°C° 0.1 mm 1 mps 734 mmHg 52%
    14:00 +34°C° 0.1 mm 1 mps 733 mmHg 51%
    15:00 +34°C° 0.1 mm 1 mps 733 mmHg 51%
    16:00 +35°C° 0.1 mm 2 mps 733 mmHg 50%
    17:00 +34°C° 0.5 mm 2 mps 733 mmHg 57%
    18:00 +31°C° 0.5 mm 2 mps 734 mmHg 63%
    19:00 +29°C° 0.5 mm 3 mps 734 mmHg 70%
    20:00 +29°C° 0.3 mm 2 mps 735 mmHg 74%
    21:00 +28°C° 0.3 mm 2 mps 735 mmHg 77%
    22:00 +27°C° 0.3 mm 2 mps 736 mmHg 81%
    23:00 +27°C° 0.2 mm 2 mps 736 mmHg 82%

    20 September, Friday

    Time Temperature Precipitation Wind Pressure Humidity
    00:00 +27°C° 0.2 mm 1 mps 736 mmHg 84%
    01:00 +26°C° 0.2 mm 1 mps 736 mmHg 85%
    02:00 +26°C° 0.7 mm 1 mps 736 mmHg 87%
    03:00 +26°C° 0.7 mm 1 mps 736 mmHg 88%
    04:00 +26°C° 0.7 mm 1 mps 736 mmHg 90%
    05:00 +26°C° 2 mm 1 mps 736 mmHg 91%
    06:00 +25°C° 2 mm 1 mps 737 mmHg 93%
    07:00 +25°C° 2 mm 1 mps 738 mmHg 94%
    08:00 +25°C° 2.5 mm 1 mps 738 mmHg 93%
    09:00 +26°C° 2.5 mm 1 mps 738 mmHg 91%
    10:00 +26°C° 2.5 mm 1 mps 739 mmHg 90%
    11:00 +26°C° 1 mm 1 mps 738 mmHg 88%
    12:00 +26°C° 1 mm 1 mps 738 mmHg 86%
    13:00 +27°C° 1 mm 1 mps 737 mmHg 84%
    14:00 +27°C° 0.3 mm 1 mps 737 mmHg 85%
    15:00 +24°C° 0.3 mm 0 mps 736 mmHg 86%
    16:00 +24°C° 0.3 mm 0 mps 736 mmHg 86%
    17:00 +24°C° 0 mm 0 mps 736 mmHg 88%
    18:00 +23°C° 0 mm 0 mps 736 mmHg 90%
    19:00 +23°C° 0 mm 0 mps 736 mmHg 92%
    20:00 +23°C° 0 mm 0 mps 737 mmHg 91%
    21:00 +23°C° 0 mm 0 mps 737 mmHg 90%
    22:00 +22°C° 0 mm 0 mps 737 mmHg 89%
    23:00 +22°C° 0 mm 0 mps 737 mmHg 89%

    21 September, Saturday

    Time Temperature Precipitation Wind Pressure Humidity
    00:00 +22°C° 0 mm 0 mps 737 mmHg 89%
    01:00 +22°C° 0 mm 0 mps 737 mmHg 89%
    02:00 +22°C° 0 mm 0 mps 737 mmHg 89%
    03:00 +22°C° 0 mm 0 mps 737 mmHg 89%
    04:00 +21°C° 0 mm 0 mps 737 mmHg 89%
    05:00 +22°C° 0 mm 0 mps 737 mmHg 87%
    06:00 +22°C° 0 mm 0 mps 738 mmHg 84%
    07:00 +23°C° 0 mm 0 mps 738 mmHg 82%
    08:00 +25°C° 0 mm 0 mps 738 mmHg 77%
    09:00 +29°C° 0 mm 1 mps 738 mmHg 71%
    10:00 +30°C° 0 mm 1 mps 738 mmHg 66%
    11:00 +32°C° 0 mm 1 mps 737 mmHg 60%
    12:00 +33°C° 0 mm 1 mps 736 mmHg 54%
    13:00 +35°C° 0 mm 1 mps 736 mmHg 48%
    14:00 +35°C° 0.1 mm 1 mps 735 mmHg 47%
    15:00 +35°C° 0.1 mm 1 mps 734 mmHg 46%
    16:00 +35°C° 0.1 mm 1 mps 734 mmHg 45%
    17:00 +33°C° 0.1 mm 1 mps 735 mmHg 51%
    18:00 +31°C° 0.1 mm 1 mps 735 mmHg 57%
    19:00 +29°C° 0.1 mm 2 mps 736 mmHg 63%
    20:00 +28°C° 0.4 mm 2 mps 736 mmHg 67%
    21:00 +28°C° 0.4 mm 2 mps 737 mmHg 71%
    22:00 +27°C° 0.4 mm 1 mps 737 mmHg 75%
    23:00 +26°C° 0.8 mm 1 mps 737 mmHg 77%

    22 September, Sunday

    Time Temperature Precipitation Wind Pressure Humidity
    00:00 +26°C° 0.8 mm 1 mps 737 mmHg 79%
    01:00 +25°C° 0.8 mm 1 mps 736 mmHg 81%
    02:00 +25°C° 0.3 mm 1 mps 736 mmHg 82%
    03:00 +23°C° 0.3 mm 0 mps 736 mmHg 82%
    04:00 +23°C° 0.3 mm 0 mps 736 mmHg 83%
    05:00 +23°C° 0.2 mm 0 mps 737 mmHg 81%
    06:00 +24°C° 0.2 mm 0 mps 737 mmHg 80%
    07:00 +24°C° 0.2 mm 0 mps 738 mmHg 78%
    08:00 +28°C° 0.1 mm 1 mps 738 mmHg 73%
    09:00 +30°C° 0.1 mm 1 mps 738 mmHg 68%
    10:00 +31°C° 0.1 mm 1 mps 737 mmHg 63%
    11:00 +33°C° 0.1 mm 1 mps 737 mmHg 58%
    12:00 +34°C° 0.1 mm 1 mps 736 mmHg 53%
    13:00 +35°C° 0.1 mm 1 mps 735 mmHg 48%
    14:00 +35°C° 0.2 mm 1 mps 735 mmHg 47%
    15:00 +35°C° 0.2 mm 1 mps 735 mmHg 47%
    16:00 +35°C° 0.2 mm 1 mps 734 mmHg 47%
    17:00 +33°C° 0.2 mm 1 mps 735 mmHg 51%
    18:00 +32°C° 0.2 mm 1 mps 735 mmHg 55%
    19:00 +31°C° 0.2 mm 1 mps 736 mmHg 59%
    20:00 +30°C° 0.9 mm 1 mps 736 mmHg 66%
    21:00 +28°C° 0.9 mm 1 mps 737 mmHg 73%
    22:00 +27°C° 0.9 mm 1 mps 737 mmHg 79%
    23:00 +27°C° 0.1 mm 1 mps 737 mmHg 80%
    Show more